Tracking 28790 objects as of 19-Apr-2024
HD Live streaming from Space Station
objects crossing your sky now

COSMOS 1174

Track COSMOS 1174 now!
10-day predictions
COSMOS 1174 is classified as:


NORAD ID: 11765
Int'l Code: 1980-030A
Perigee: 367.9 km
Apogee: 1,108.6 km
Inclination: 66.1 °
Period: 99.4 minutes
Semi major axis: 7109 km
RCS: 4.5129 m2 (large)
Launch date: April 18, 1980
Source: Commonwealth of Independent States (former USSR) (CIS)
Launch site: TYURATAM MISSILE AND SPACE COMPLEX (TTMTR)
Your satellite tracking list
Your tracking list is empty




NASA's NSSDC Master Catalog

Two Line Element Set (TLE):
1 11765U 80030A   24109.90581350  .00009029  00000-0  39603-3 0  9992
2 11765  66.0829 274.6768 0520966 235.2211 119.8815 14.48337384264209
Source of the keplerian elements: AFSPC